Wind_Speed
26 27 26 26 25 24 23 23 23 23 25 27 27 28 28 28 28 27 24 22 21 21 20 18 17 18 19 19 20 20 21 22 23 24 24 23 22 21 20 21 21 21 21 21 21 21 20 20 21 21 22 22 23 25 26 28 29 30 32 33 33 34 35
28 28 27 27 27 26 27 27 26 25 26 28 28 28 28 28 28 26 23 21 21 20 18 17 17 18 19 19 19 20 21 22 23 23 23 23 22 21 21 21 21 22 22 21 21 21 21 21 20 20 22 23 23 25 27 28 30 31 33 34 34 35 35
30 29 29 29 29 30 30 30 28 26 28 29 28 28 28 28 28 25 22 20 20 20 18 18 18 18 19 19 19 20 21 21 22 23 23 22 22 21 21 22 22 22 22 21 21 21 20 21 21 20 20 23 24 25 28 29 31 32 33 34 35 35 35
30 29 30 30 31 32 33 32 30 28 29 30 29 29 29 28 27 24 22 21 21 20 19 18 18 18 19 19 19 20 20 21 22 22 22 22 21 22 22 23 23 23 22 22 21 21 20 20 22 22 21 23 24 26 28 30 31 33 34 34 35 35 35
31 29 30 31 32 33 34 34 31 29 30 30 29 29 29 27 26 24 22 21 22 21 19 18 18 18 19 19 19 20 20 21 21 22 22 21 21 22 23 24 24 24 23 22 22 21 21 21 22 23 24 24 25 26 29 31 32 33 34 34 34 34 35
32 30 30 31 33 34 35 35 33 31 30 30 29 29 28 27 26 24 23 22 22 21 19 18 18 19 19 19 19 19 20 21 21 21 21 21 22 23 24 25 25 24 23 23 23 22 21 22 23 24 25 26 27 28 30 32 33 33 33 33 34 35 36
34 31 30 31 33 35 36 36 34 32 31 30 29 29 28 26 25 24 23 23 23 22 20 19 20 19 19 19 19 19 20 21 21 21 21 21 22 23 24 25 25 25 24 23 23 22 22 22 24 25 26 27 29 30 31 33 33 33 33 34 35 36 37
36 33 31 31 34 35 36 37 36 34 32 30 30 30 27 26 26 25 24 23 23 23 22 21 21 20 19 18 18 19 20 20 20 20 21 21 22 23 24 25 25 25 24 24 23 22 22 23 25 26 27 28 30 31 32 33 33 34 34 34 35 37 38
38 36 32 32 33 34 36 37 36 35 33 30 30 30 27 26 27 26 25 23 23 22 22 21 21 21 20 18 18 18 19 20 20 20 21 21 22 23 24 25 25 24 24 24 23 22 23 24 25 27 28 29 30 31 32 33 34 34 34 34 35 37 38
39 36 34 33 32 34 37 37 37 36 34 30 30 30 28 26 27 27 26 24 23 22 22 22 21 21 20 18 17 18 19 20 20 20 21 21 22 23 24 25 24 24 24 23 23 23 24 25 26 27 28 29 30 31 32 33 33 34 34 34 35 37 38
38 37 35 34 34 36 37 37 37 37 35 31 31 30 28 26 27 28 27 25 23 23 22 22 22 21 19 18 17 18 19 20 20 21 21 21 22 23 23 24 24 24 23 23 23 23 24 25 26 27 28 29 30 32 33 33 33 33 34 35 35 37 39
40 38 37 36 36 37 38 38 38 38 36 33 30 30 28 26 27 29 29 26 24 23 23 22 22 21 19 18 18 18 19 20 20 21 21 22 22 23 23 23 23 23 23 23 23 23 24 25 26 27 28 29 30 31 33 33 32 32 33 35 37 38 40
41 39 39 38 39 39 40 40 39 38 38 34 30 29 28 27 28 30 30 27 24 23 23 22 22 21 19 19 18 18 19 20 20 21 21 22 22 23 23 23 22 23 23 23 23 24 24 25 26 27 28 29 31 31 32 33 32 32 34 36 38 40 41
41 40 40 40 40 40 42 42 40 40 40 36 31 29 29 28 28 31 31 28 24 24 24 23 22 21 19 19 18 18 19 20 20 21 21 22 22 23 23 23 22 22 23 23 23 24 24 25 26 27 28 29 31 31 32 32 32 34 36 37 39 40 42
42 42 42 41 40 41 43 43 42 41 41 37 32 30 30 29 29 31 33 29 25 24 24 23 22 21 20 19 18 18 19 20 20 21 21 22 23 23 23 23 22 22 22 23 23 24 24 25 26 27 28 30 31 31 31 31 32 35 37 38 39 40 41
44 45 44 41 40 41 43 43 43 43 42 39 34 31 30 31 30 32 34 31 26 24 24 24 22 20 19 19 18 18 19 20 20 20 21 22 23 23 23 23 22 22 22 23 23 24 24 25 27 28 28 29 30 30 30 31 34 35 37 39 40 41 41
46 46 44 42 41 40 42 43 43 44 42 40 37 32 31 32 31 32 35 33 28 25 24 24 22 20 19 19 19 19 19 19 20 20 21 22 23 23 23 23 23 22 23 23 23 24 25 26 28 28 28 28 29 29 30 33 35 36 38 40 41 41 39
48 46 44 43 41 40 42 45 44 44 43 41 38 34 32 33 31 32 35 34 29 25 24 24 22 20 19 19 19 20 19 19 20 20 22 22 23 24 24 24 23 23 23 24 24 25 25 27 28 29 28 28 29 31 32 34 37 39 40 41 41 41 38
47 45 44 44 41 40 44 46 45 45 44 42 39 35 33 34 32 33 36 35 30 26 24 24 23 20 19 19 20 20 20 19 20 21 22 23 23 24 24 24 24 24 24 24 25 25 26 27 29 29 28 29 30 31 32 35 38 40 41 42 41 40 38
46 45 45 44 42 43 46 47 46 45 44 42 38 35 34 34 33 34 36 35 31 26 25 25 23 21 20 20 20 21 20 20 20 21 22 23 24 24 24 25 24 24 25 25 26 26 27 28 29 29 29 29 29 30 33 37 39 41 42 42 41 39 37
45 46 46 44 44 46 48 48 46 44 42 39 35 34 34 34 34 35 36 35 31 27 25 25 23 22 21 20 20 21 21 20 21 22 23 23 24 24 25 25 25 25 25 26 26 27 27 28 29 30 30 29 30 32 35 38 40 41 42 42 40 38 37
45 46 46 45 46 48 48 48 45 42 39 36 34 34 35 35 35 36 36 36 32 27 26 25 24 23 22 20 20 21 21 21 22 23 24 24 24 25 25 25 25 25 25 25 26 27 27 28 29 29 29 30 31 34 36 39 40 41 41 40 38 37 36
46 45 45 46 47 48 48 47 44 39 36 35 34 35 36 36 36 36 36 36 32 28 27 26 25 23 22 21 21 22 22 22 23 24 25 25 25 25 25 25 25 25 25 25 26 27 27 28 29 29 30 31 33 35 38 39 40 40 39 38 36 36 37
47 46 46 46 47 47 47 46 43 37 35 35 35 35 36 37 37 37 37 36 33 29 27 27 26 24 23 22 23 23 23 23 24 25 26 26 26 26 26 26 25 25 25 25 26 27 27 28 29 29 31 33 35 36 38 39 39 38 37 35 35 35 37
48 48 48 47 47 48 48 47 43 37 35 35 35 35 37 38 38 37 37 37 34 30 28 28 27 25 24 24 23 23 24 25 25 26 27 28 27 27 27 27 26 26 25 26 27 27 27 28 29 30 32 34 36 37 38 39 38 36 35 34 34 35 36
50 50 49 48 49 49 49 48 43 37 36 37 36 36 38 38 38 37 37 37 35 31 29 29 28 27 26 25 24 24 25 26 26 27 28 29 29 29 29 28 28 27 26 27 27 26 26 28 29 31 33 35 36 37 38 38 37 35 34 35 35 36 36
52 51 50 50 50 50 50 47 42 38 39 38 36 36 38 39 39 38 38 38 36 33 30 30 30 29 27 25 25 25 26 27 28 28 29 31 31 31 31 30 30 29 28 27 27 26 27 28 30 32 34 36 37 37 37 37 36 34 34 35 36 36 36
53 52 52 52 51 51 51 47 41 39 40 39 37 37 39 40 40 39 39 39 37 34 32 31 32 30 28 26 25 26 28 29 29 29 31 32 33 33 33 32 31 30 28 27 27 26 27 29 31 33 35 36 37 37 36 36 34 34 34 35 36 36 35
55 54 54 54 53 53 51 46 41 39 40 40 39 38 39 41 41 40 39 39 37 34 32 33 33 31 30 27 27 28 30 31 31 31 32 34 35 35 34 33 32 31 29 28 27 27 28 30 32 33 34 35 36 36 35 34 33 34 35 36 36 36 35
57 56 54 53 53 54 50 44 40 40 41 41 40 38 39 42 42 42 40 39 37 35 33 33 34 33 31 29 28 29 31 31 31 32 33 34 35 35 35 34 33 31 30 28 27 27 28 30 32 33 34 35 35 34 33 32 32 33 35 36 36 36 35
57 55 53 53 54 52 46 41 40 41 42 43 40 39 41 42 43 42 41 39 37 35 34 35 35 34 32 30 30 31 32 32 32 33 33 34 35 35 35 34 33 32 30 28 26 26 28 30 32 33 33 34 33 32 31 31 32 33 35 36 36 36 34
56 54 53 54 53 47 42 41 42 43 44 43 40 39 41 42 42 41 41 40 37 35 35 36 36 34 32 32 33 34 34 34 34 34 34 34 34 34 35 34 33 33 30 27 26 27 28 30 32 32 32 33 32 31 30 31 32 34 35 36 36 35 34
54 54 54 54 50 44 41 43 44 44 43 42 40 40 41 41 41 41 41 40 38 35 35 36 36 34 33 32 32 33 33 34 35 36 35 35 34 33 33 33 33 32 30 27 26 27 29 30 30 31 32 32 31 30 30 31 32 34 35 36 37 35 34
52 53 54 52 47 43 44 45 45 43 42 41 40 39 40 40 40 40 40 40 39 37 37 37 36 35 33 32 33 33 33 34 36 37 36 36 37 34 32 33 33 32 29 27 26 27 29 29 30 31 32 31 30 30 31 31 32 34 35 36 36 35 34
52 53 53 50 46 45 46 46 44 41 40 40 40 40 40 41 41 40 40 40 39 39 38 37 36 34 34 35 35 34 34 35 35 37 37 39 40 37 33 33 32 31 28 27 26 27 28 29 30 32 32 31 30 31 32 33 34 34 35 36 36 35 34
51 52 51 48 47 47 47 45 41 38 36 37 38 40 41 42 43 43 42 41 41 40 38 37 37 35 35 36 36 35 35 35 35 38 40 40 41 35 31 31 31 29 27 25 26 27 28 29 31 32 32 31 31 32 33 34 35 35 36 36 36 35 34
51 51 50 49 48 47 45 42 37 34 34 34 35 38 40 43 44 45 45 44 44 42 39 37 38 36 36 37 37 36 36 35 37 40 42 42 39 32 29 29 29 27 25 25 27 28 29 30 32 32 32 31 31 33 34 35 35 36 36 36 36 35 34
Wind_Direction
248 253 258 264 269 274 280 283 286 293 297 298 298 299 301 300 296 295 298 299 300 300 296 289 286 286 286 288 290 290 290 291 293 295 294 292 288 285 282 279 280 281 282 283 283 286 288 288 290 292 296 300 303 304 305 306 306 306 305 306 308 310 312
247 252 258 264 270 275 279 281 282 289 296 298 298 298 299 298 294 294 297 299 299 298 291 284 284 286 286 287 289 289 290 291 293 295 294 291 288 285 282 280 279 279 280 281 282 285 287 288 289 292 296 302 305 306 306 306 306 306 306 308 310 311 312
245 252 258 264 271 276 279 280 280 286 295 298 297 296 296 295 292 293 296 298 296 292 285 280 283 286 286 287 289 289 290 292 295 295 293 290 288 285 282 281 280 280 280 280 281 284 285 288 292 296 299 303 307 308 307 306 307 307 308 310 311 311 312
243 251 258 264 270 275 279 279 278 284 295 296 294 293 294 293 291 291 294 294 291 287 282 279 281 284 285 287 289 289 290 294 296 295 292 290 287 285 283 283 282 281 280 280 281 283 285 288 293 299 303 305 307 308 307 307 308 308 310 311 311 311 312
241 251 258 264 269 274 277 278 279 285 293 294 291 291 292 291 289 290 291 290 288 286 281 279 281 283 285 286 288 289 292 295 296 295 293 291 288 286 284 284 283 282 281 281 282 284 286 289 293 298 303 306 307 308 307 307 308 309 311 312 311 312 313
239 249 257 263 268 272 275 277 280 287 292 292 288 288 289 289 287 287 288 287 287 284 279 278 281 283 284 285 288 290 293 295 296 295 293 292 290 287 285 285 285 284 283 283 284 285 286 289 293 296 301 305 308 308 307 307 309 310 312 312 312 313 314
239 246 254 261 266 270 273 277 281 286 290 288 284 285 287 286 284 283 284 286 286 282 277 277 281 282 283 285 288 291 293 294 295 295 295 293 291 288 286 286 285 284 284 284 284 285 286 289 292 296 300 304 306 308 307 308 310 311 311 311 312 314 314
240 244 250 258 264 269 273 277 280 285 288 285 280 281 284 283 280 280 283 286 286 283 278 275 277 280 281 283 286 289 292 293 294 294 295 294 292 290 287 286 285 285 285 285 286 286 286 289 292 296 300 304 305 307 307 308 310 310 310 311 312 314 314
242 244 248 255 261 267 272 275 279 283 286 283 277 278 281 280 278 279 282 285 286 283 278 275 275 278 280 282 285 288 291 292 294 294 295 295 294 291 288 286 285 285 286 287 288 288 288 290 293 297 301 303 305 306 307 308 309 309 310 311 313 314 315
242 244 246 251 257 264 269 273 277 280 283 280 275 275 279 279 277 277 280 283 284 281 275 272 273 275 279 283 285 287 289 291 293 295 296 296 295 293 290 287 286 285 286 287 288 288 289 292 295 299 301 303 305 305 307 307 308 309 310 313 315 316 315
241 244 246 248 254 261 266 270 274 277 280 278 273 274 277 277 276 276 278 281 282 279 273 270 271 275 280 283 285 286 288 290 292 294 295 296 297 296 293 289 286 285 284 286 287 288 291 294 297 299 301 303 304 305 306 306 307 309 311 315 318 317 316
240 245 247 247 252 259 263 268 271 274 277 275 271 272 276 276 273 273 276 279 281 279 273 270 271 275 280 282 283 285 286 288 291 292 294 296 298 298 296 291 286 283 282 283 285 288 291 294 297 299 301 302 304 305 305 305 306 310 313 316 319 319 318
240 245 247 248 252 257 261 265 268 271 274 273 270 271 274 274 271 271 274 277 281 279 274 270 271 275 279 281 281 283 284 287 289 291 293 297 300 299 297 292 286 282 281 282 285 288 291 294 297 298 300 302 304 304 304 304 306 312 316 318 320 320 319
239 243 246 248 252 256 260 263 266 269 272 272 268 268 272 273 269 269 272 276 279 277 273 270 271 274 277 278 280 281 282 285 287 290 293 296 299 299 297 292 287 283 282 283 285 288 291 294 296 299 301 303 304 304 303 303 307 314 318 319 320 320 318
236 240 244 247 250 254 258 262 265 268 270 270 267 267 271 271 268 268 270 274 277 275 271 268 269 272 275 277 278 279 280 283 285 288 291 294 297 298 297 293 288 284 283 284 286 289 291 294 298 301 303 305 305 304 303 304 309 315 317 318 319 319 317
234 238 242 244 248 252 256 260 263 266 268 268 267 268 272 271 266 265 269 272 274 273 269 266 267 270 273 276 277 277 279 281 284 287 289 292 295 297 298 295 289 286 285 285 287 289 293 297 300 303 305 306 305 305 305 305 309 314 317 318 319 319 316
234 237 240 243 246 249 254 258 261 264 266 267 267 269 272 270 264 263 267 270 272 271 267 265 266 268 271 274 275 276 278 281 284 286 287 290 294 297 298 295 291 287 285 286 288 291 296 300 303 304 305 305 305 306 307 307 311 315 317 318 320 319 315
234 236 239 241 243 246 251 256 259 262 264 266 267 270 271 268 262 261 264 268 270 269 265 263 265 267 270 273 275 276 278 281 284 285 286 289 293 296 298 296 292 288 286 288 290 295 299 302 303 304 304 305 307 308 307 309 314 317 318 319 320 318 314
235 236 237 238 240 244 250 254 257 261 263 265 267 269 268 265 260 259 261 265 268 267 263 262 263 266 270 273 275 277 279 282 283 284 285 287 291 294 296 295 292 289 288 290 293 297 300 301 302 303 304 305 308 309 309 311 315 317 317 319 319 316 313
233 233 233 234 239 244 249 253 256 260 263 265 266 266 264 262 259 257 259 263 266 266 262 261 262 265 269 272 275 278 280 281 282 283 283 285 288 292 294 294 291 289 289 291 294 298 300 300 301 303 303 305 308 311 311 313 315 316 317 319 317 315 313
229 229 229 232 238 243 248 253 256 259 261 262 263 262 261 260 258 256 258 261 265 265 261 259 261 263 267 272 277 279 279 278 279 280 282 283 286 289 291 292 291 290 290 293 296 298 299 301 302 303 304 306 310 313 314 315 316 316 317 317 316 314 312
225 226 228 231 238 243 248 253 256 257 259 260 261 261 260 258 257 256 257 260 263 263 259 258 259 262 267 273 277 278 277 276 277 278 280 281 283 286 289 290 290 291 292 294 296 298 300 302 303 303 305 308 312 315 316 316 315 315 316 316 314 313 313
222 225 228 231 237 243 248 252 254 255 257 258 259 260 259 258 257 257 257 258 262 262 258 256 258 261 266 272 275 277 277 276 276 276 277 279 281 284 287 288 290 291 294 296 297 298 301 302 302 303 306 310 314 315 315 314 314 315 315 314 314 314 313
221 224 227 230 236 242 246 250 252 253 257 258 258 259 259 258 257 256 256 257 260 260 256 254 256 260 264 269 274 276 277 276 274 275 276 278 280 282 285 286 289 291 294 296 297 299 301 301 302 304 308 311 313 313 313 313 314 314 314 313 314 314 313
220 223 226 230 235 240 245 248 250 253 258 259 258 258 259 258 257 256 255 256 258 259 256 253 255 258 261 267 273 277 278 276 274 274 275 276 278 280 283 285 287 290 293 295 297 299 300 299 301 305 308 310 311 312 312 313 314 313 313 313 314 314 313
220 223 226 230 234 239 243 246 249 254 258 257 256 257 258 257 256 254 254 255 257 258 255 252 253 256 259 265 271 276 278 277 275 274 275 276 276 278 281 283 285 288 292 295 297 297 297 299 302 305 307 309 310 312 312 313 314 313 313 313 314 313 313
220 223 226 230 234 238 242 246 249 252 255 255 254 255 256 256 255 254 253 254 256 257 255 253 253 255 258 263 269 274 277 278 277 277 277 277 276 276 278 280 283 286 291 294 295 295 296 299 303 305 307 309 311 312 312 313 313 313 313 313 313 313 313
221 223 226 230 234 238 242 245 248 251 253 252 252 253 254 255 255 254 253 253 255 256 256 253 253 255 258 261 267 272 275 277 279 280 280 279 277 276 276 277 280 284 290 292 291 292 296 299 302 305 308 310 311 312 312 312 312 312 313 313 313 314 313
222 224 226 230 234 238 242 245 248 250 251 250 249 251 253 254 254 254 253 254 255 256 257 255 254 255 258 260 265 269 273 277 280 283 283 282 279 276 274 275 278 283 287 288 288 291 295 299 303 307 310 310 310 310 310 312 312 312 312 313 313 313 312
223 225 228 230 234 238 242 245 247 248 248 248 248 250 253 254 253 253 253 254 255 257 258 256 254 255 257 260 264 268 273 278 282 283 285 286 282 276 272 272 276 281 284 285 286 290 295 300 305 308 309 309 308 309 310 311 312 312 312 313 312 311 310
226 227 228 231 234 238 241 243 245 245 246 247 247 249 252 253 253 253 254 254 255 257 258 257 256 255 257 260 264 268 273 278 282 285 288 289 286 276 269 270 275 279 281 282 285 290 296 302 307 309 308 307 307 309 310 311 312 313 313 312 311 310 309
228 228 228 231 235 238 240 241 243 244 245 246 246 248 251 253 254 255 255 255 256 257 258 260 260 259 259 261 265 269 274 278 281 285 288 292 290 278 268 268 272 276 279 281 285 291 297 302 307 308 307 306 307 308 309 310 311 313 313 312 311 310 309
229 228 229 232 235 237 237 239 241 244 246 247 248 249 252 255 257 257 258 259 259 259 260 261 263 263 261 261 264 269 274 278 280 283 285 290 291 281 267 265 270 273 276 281 285 291 297 302 307 307 305 305 306 307 307 309 311 312 312 311 310 308 308
228 228 229 232 234 234 236 238 241 244 247 249 249 251 254 258 260 260 260 262 263 262 261 262 264 265 263 263 264 268 273 276 279 283 285 287 291 284 267 260 266 270 274 279 284 290 297 303 306 306 303 304 305 306 307 308 310 311 311 310 309 307 307
226 227 230 231 232 233 235 237 240 245 249 252 253 254 256 259 262 263 263 264 263 263 263 264 266 266 266 265 265 267 272 274 277 282 283 285 290 284 263 254 262 268 271 277 284 290 298 303 305 303 302 304 306 306 307 308 308 309 310 309 308 307 308
225 228 230 231 232 234 236 238 242 247 253 257 258 258 258 260 262 265 266 266 265 265 265 266 266 267 267 265 264 266 270 272 276 280 281 284 288 279 257 251 260 265 269 278 285 292 298 302 303 302 302 304 307 308 308 308 307 308 309 309 309 308 309
225 228 230 232 234 235 236 238 242 249 255 259 260 259 257 258 260 263 265 266 267 267 267 266 266 265 265 265 265 265 268 272 276 279 281 283 280 265 249 250 258 262 269 279 287 293 299 301 301 301 302 304 307 309 309 308 307 307 308 309 309 308 308
Height
5841 5841 5842 5842 5842 5842 5842 5843 5843 5843 5843 5842 5841 5840 5840 5839 5838 5837 5836 5835 5834 5834 5834 5833 5833 5833 5833 5832 5832 5831 5830 5830 5829 5828 5828 5827 5826 5826 5825 5825 5824 5823 5822 5822 5821 5821 5820 5820 5819 5818 5817 5816 5815 5814 5812 5810 5809 5806 5804 5802 5800 5798 5795
5838 5838 5839 5839 5839 5839 5839 5840 5841 5841 5840 5839 5838 5837 5837 5836 5835 5835 5834 5833 5832 5832 5832 5831 5831 5831 5830 5830 5829 5829 5828 5828 5827 5827 5826 5825 5824 5824 5824 5823 5822 5821 5821 5820 5820 5819 5819 5818 5817 5817 5815 5814 5813 5812 5810 5808 5806 5804 5802 5800 5797 5795 5792
5835 5836 5836 5836 5836 5836 5836 5837 5838 5838 5838 5837 5836 5835 5834 5834 5833 5832 5831 5830 5830 5829 5829 5829 5829 5829 5828 5828 5827 5827 5826 5826 5825 5825 5824 5823 5823 5822 5822 5821 5820 5820 5819 5819 5818 5818 5817 5816 5815 5815 5814 5812 5811 5810 5808 5806 5804 5801 5799 5797 5795 5792 5790
5832 5832 5833 5833 5833 5832 5833 5834 5835 5835 5835 5834 5833 5832 5832 5831 5830 5830 5829 5828 5827 5827 5827 5827 5827 5827 5826 5826 5825 5825 5824 5824 5823 5823 5822 5821 5821 5820 5820 5819 5819 5818 5818 5817 5816 5816 5815 5814 5813 5812 5811 5810 5809 5807 5805 5803 5801 5799 5797 5794 5792 5789 5787
5829 5829 5830 5830 5830 5830 5830 5830 5831 5832 5832 5831 5830 5830 5829 5829 5828 5827 5826 5826 5825 5825 5825 5825 5825 5824 5824 5824 5823 5823 5822 5822 5821 5821 5820 5819 5819 5818 5818 5817 5817 5816 5816 5815 5814 5814 5813 5812 5811 5810 5808 5807 5806 5805 5803 5800 5798 5796 5794 5791 5789 5786 5784
5825 5826 5827 5827 5827 5827 5827 5827 5828 5829 5829 5828 5827 5827 5827 5826 5826 5825 5824 5823 5823 5823 5823 5823 5823 5822 5822 5821 5821 5821 5820 5820 5819 5819 5818 5817 5817 5816 5816 5815 5815 5814 5814 5813 5812 5812 5811 5810 5809 5807 5806 5804 5803 5802 5800 5797 5795 5793 5791 5788 5786 5783 5781
5822 5823 5824 5824 5824 5824 5824 5824 5824 5825 5825 5825 5824 5824 5824 5824 5823 5822 5822 5821 5821 5821 5821 5821 5820 5820 5820 5819 5819 5819 5818 5818 5817 5817 5816 5815 5815 5814 5814 5813 5813 5812 5812 5811 5810 5810 5809 5808 5807 5805 5804 5802 5800 5799 5797 5794 5792 5790 5788 5785 5783 5780 5777
5818 5819 5820 5820 5821 5821 5820 5820 5821 5822 5822 5822 5821 5821 5822 5822 5821 5820 5820 5819 5819 5819 5818 5818 5818 5818 5818 5817 5817 5817 5817 5816 5816 5815 5814 5813 5812 5812 5811 5811 5810 5810 5809 5809 5808 5808 5807 5805 5804 5803 5801 5799 5798 5796 5793 5791 5789 5787 5785 5782 5780 5777 5774
5815 5816 5817 5817 5817 5817 5817 5816 5817 5818 5819 5819 5818 5819 5819 5819 5818 5818 5818 5817 5817 5816 5816 5816 5816 5815 5815 5815 5815 5815 5814 5814 5813 5813 5812 5811 5810 5809 5809 5808 5808 5807 5807 5806 5806 5805 5804 5803 5802 5800 5799 5797 5795 5793 5790 5788 5786 5784 5782 5780 5777 5774 5771
5812 5813 5814 5814 5814 5814 5813 5813 5814 5815 5816 5816 5816 5816 5817 5816 5816 5815 5815 5815 5814 5814 5814 5813 5813 5813 5813 5813 5812 5812 5812 5811 5811 5810 5809 5809 5808 5807 5806 5805 5805 5805 5804 5804 5803 5802 5801 5800 5799 5797 5796 5794 5792 5789 5787 5785 5783 5781 5778 5776 5774 5771 5768
5809 5810 5810 5810 5810 5810 5810 5810 5811 5811 5813 5813 5813 5813 5814 5814 5813 5813 5812 5812 5812 5811 5811 5811 5810 5810 5810 5810 5809 5809 5809 5809 5808 5808 5807 5806 5805 5805 5804 5803 5803 5803 5802 5801 5801 5800 5799 5797 5796 5795 5793 5791 5789 5787 5784 5782 5780 5778 5776 5773 5771 5768 5765
5805 5806 5807 5807 5807 5807 5807 5807 5807 5808 5809 5810 5810 5810 5811 5811 5810 5810 5809 5809 5809 5809 5808 5808 5807 5807 5807 5807 5807 5807 5806 5806 5806 5805 5805 5804 5803 5802 5802 5801 5800 5800 5799 5799 5798 5797 5796 5795 5793 5791 5790 5788 5786 5784 5781 5779 5777 5776 5773 5770 5768 5765 5762
5802 5803 5803 5803 5803 5804 5803 5803 5804 5804 5805 5806 5807 5807 5807 5808 5807 5807 5807 5806 5806 5806 5805 5805 5805 5805 5805 5805 5804 5804 5804 5804 5803 5803 5802 5802 5801 5800 5799 5799 5798 5797 5797 5796 5795 5794 5793 5792 5790 5788 5787 5785 5783 5781 5779 5776 5774 5772 5770 5767 5764 5761 5758
5798 5799 5799 5799 5800 5800 5800 5800 5800 5801 5802 5803 5803 5804 5804 5804 5804 5804 5804 5804 5803 5803 5803 5802 5802 5802 5802 5802 5802 5801 5801 5801 5801 5800 5800 5799 5799 5798 5797 5796 5795 5795 5794 5793 5793 5792 5790 5789 5787 5785 5784 5782 5780 5778 5776 5773 5771 5769 5767 5764 5761 5758 5755
5793 5794 5795 5796 5796 5796 5796 5796 5797 5797 5798 5799 5799 5800 5801 5801 5801 5801 5801 5801 5801 5800 5800 5800 5800 5800 5800 5799 5799 5799 5799 5798 5798 5798 5797 5797 5796 5795 5794 5793 5792 5792 5791 5791 5790 5789 5787 5786 5784 5783 5781 5779 5777 5775 5773 5770 5768 5766 5764 5761 5758 5755 5752
5788 5789 5791 5792 5793 5793 5793 5793 5793 5794 5794 5795 5795 5796 5797 5798 5798 5798 5798 5798 5798 5798 5798 5797 5797 5797 5797 5797 5797 5796 5796 5796 5795 5795 5794 5794 5793 5792 5791 5790 5789 5789 5788 5788 5787 5786 5785 5783 5781 5780 5778 5776 5774 5772 5770 5767 5765 5763 5761 5758 5755 5752 5748
5784 5785 5787 5788 5789 5789 5789 5789 5790 5790 5791 5791 5791 5792 5794 5794 5795 5795 5795 5794 5795 5795 5795 5795 5794 5794 5794 5794 5794 5794 5793 5793 5793 5792 5792 5791 5790 5789 5788 5787 5787 5786 5786 5785 5784 5783 5782 5780 5779 5777 5775 5773 5771 5769 5767 5764 5762 5760 5757 5754 5751 5748 5745
5780 5782 5783 5784 5785 5786 5785 5785 5786 5786 5787 5787 5787 5789 5790 5790 5791 5792 5791 5791 5792 5792 5792 5792 5792 5791 5791 5791 5791 5791 5790 5790 5790 5789 5789 5788 5787 5786 5786 5785 5784 5784 5783 5782 5781 5780 5779 5778 5776 5774 5772 5770 5768 5766 5763 5761 5759 5756 5753 5751 5748 5745 5741
5776 5778 5779 5780 5781 5781 5781 5781 5782 5782 5783 5783 5784 5785 5786 5787 5788 5788 5788 5788 5789 5789 5789 5789 5789 5788 5788 5788 5788 5788 5788 5787 5787 5786 5786 5785 5784 5784 5783 5782 5782 5781 5780 5779 5778 5777 5776 5774 5772 5770 5769 5767 5765 5763 5761 5758 5756 5753 5750 5747 5744 5741 5738
5772 5774 5775 5776 5776 5776 5776 5777 5778 5779 5779 5779 5780 5781 5782 5783 5784 5784 5784 5784 5785 5786 5786 5786 5786 5785 5785 5785 5785 5785 5785 5784 5784 5783 5783 5782 5781 5781 5780 5780 5779 5778 5777 5776 5775 5774 5773 5771 5769 5767 5765 5763 5762 5760 5758 5755 5752 5749 5746 5743 5740 5737 5735
5767 5768 5770 5771 5771 5771 5772 5772 5774 5775 5775 5775 5777 5777 5778 5779 5780 5780 5781 5781 5782 5783 5783 5783 5783 5782 5782 5781 5782 5782 5781 5781 5780 5780 5779 5779 5778 5778 5777 5777 5776 5775 5774 5773 5772 5771 5770 5768 5766 5764 5762 5760 5758 5757 5754 5752 5748 5745 5743 5740 5737 5734 5731
5761 5763 5765 5766 5767 5767 5767 5768 5770 5771 5771 5772 5773 5773 5774 5775 5776 5776 5777 5778 5779 5780 5780 5780 5779 5779 5778 5778 5779 5778 5778 5778 5777 5777 5776 5776 5775 5775 5774 5773 5773 5772 5771 5770 5769 5768 5767 5765 5763 5761 5759 5757 5755 5753 5751 5748 5745 5742 5739 5736 5733 5731 5728
5756 5758 5760 5761 5762 5762 5763 5764 5765 5767 5768 5768 5769 5769 5770 5771 5772 5772 5773 5774 5775 5776 5776 5776 5776 5775 5775 5775 5775 5775 5775 5774 5774 5773 5773 5772 5772 5771 5771 5770 5770 5769 5768 5767 5766 5765 5763 5761 5759 5758 5756 5754 5752 5750 5747 5744 5742 5739 5736 5732 5730 5727 5725
5751 5753 5755 5756 5757 5757 5758 5759 5761 5763 5764 5764 5765 5766 5766 5766 5767 5768 5769 5770 5772 5772 5773 5773 5772 5772 5772 5772 5771 5772 5772 5771 5770 5770 5769 5769 5768 5768 5767 5767 5766 5766 5765 5764 5763 5761 5760 5758 5756 5755 5753 5751 5748 5746 5744 5741 5738 5735 5732 5729 5726 5724 5721
5746 5747 5749 5751 5752 5753 5754 5755 5757 5759 5760 5760 5761 5762 5762 5762 5763 5764 5765 5767 5768 5769 5769 5769 5769 5768 5768 5768 5768 5768 5768 5767 5767 5766 5766 5765 5765 5764 5764 5763 5763 5762 5761 5760 5759 5758 5756 5755 5753 5751 5749 5747 5745 5743 5740 5737 5734 5731 5728 5726 5723 5721 5718
5740 5742 5745 5746 5747 5748 5749 5750 5753 5755 5756 5756 5757 5758 5758 5758 5759 5760 5761 5762 5764 5765 5765 5765 5765 5765 5764 5765 5765 5765 5764 5764 5763 5763 5762 5762 5762 5761 5761 5760 5759 5759 5758 5757 5756 5754 5753 5751 5750 5748 5746 5744 5741 5739 5736 5733 5731 5728 5725 5723 5720 5718 5715
5735 5738 5740 5741 5742 5743 5745 5747 5750 5751 5751 5752 5754 5754 5754 5754 5755 5756 5757 5758 5760 5761 5761 5761 5761 5761 5761 5761 5762 5761 5761 5760 5760 5760 5759 5759 5758 5758 5757 5757 5756 5755 5754 5753 5752 5751 5750 5748 5746 5744 5742 5740 5738 5735 5732 5730 5727 5725 5722 5720 5717 5715 5712
5730 5733 5735 5736 5737 5739 5740 5743 5745 5746 5747 5748 5750 5750 5750 5750 5751 5752 5753 5754 5755 5756 5757 5757 5757 5757 5757 5758 5758 5758 5757 5757 5757 5757 5756 5756 5755 5755 5754 5754 5753 5752 5751 5750 5749 5748 5746 5745 5743 5741 5739 5736 5734 5731 5729 5726 5724 5722 5719 5716 5714 5711 5709
5724 5727 5729 5731 5733 5735 5736 5739 5741 5742 5742 5744 5745 5746 5746 5746 5747 5748 5749 5750 5751 5752 5753 5753 5753 5754 5754 5754 5755 5754 5753 5753 5754 5753 5753 5752 5751 5751 5751 5750 5749 5748 5748 5747 5745 5744 5743 5741 5739 5737 5735 5733 5730 5728 5725 5723 5721 5718 5716 5713 5711 5708 5706
5719 5722 5724 5727 5729 5731 5733 5735 5737 5738 5738 5739 5740 5742 5742 5742 5742 5744 5745 5746 5747 5748 5749 5749 5749 5750 5750 5750 5751 5750 5750 5750 5750 5750 5749 5748 5747 5747 5747 5746 5746 5745 5744 5743 5742 5741 5739 5738 5736 5733 5731 5729 5727 5724 5722 5720 5718 5715 5713 5710 5707 5705 5703
5714 5717 5720 5723 5724 5727 5730 5732 5732 5733 5733 5734 5736 5738 5738 5737 5738 5739 5741 5742 5743 5744 5745 5745 5745 5746 5747 5747 5747 5747 5747 5747 5747 5746 5745 5744 5743 5743 5743 5743 5742 5741 5740 5740 5739 5738 5736 5734 5732 5730 5728 5725 5723 5721 5719 5717 5715 5712 5710 5707 5704 5702 5700
5709 5713 5716 5718 5720 5724 5726 5727 5728 5728 5729 5730 5733 5734 5733 5733 5735 5736 5737 5738 5739 5740 5741 5740 5741 5742 5743 5743 5743 5743 5743 5743 5742 5741 5740 5740 5739 5738 5738 5738 5738 5737 5737 5736 5735 5734 5732 5730 5728 5726 5724 5722 5720 5718 5716 5714 5711 5709 5706 5704 5701 5699 5697
5705 5708 5711 5714 5717 5720 5722 5722 5723 5724 5726 5727 5729 5730 5730 5730 5731 5732 5733 5733 5735 5736 5737 5736 5737 5738 5739 5739 5739 5739 5739 5739 5738 5737 5736 5735 5734 5734 5734 5734 5734 5733 5733 5732 5731 5730 5728 5726 5725 5723 5721 5718 5717 5715 5713 5711 5708 5706 5703 5701 5698 5696 5693
5701 5704 5707 5709 5712 5715 5716 5717 5719 5721 5722 5723 5725 5726 5726 5726 5727 5728 5729 5729 5731 5733 5733 5733 5733 5734 5735 5735 5735 5735 5735 5735 5733 5732 5731 5731 5731 5730 5730 5730 5730 5729 5729 5728 5727 5726 5724 5723 5721 5719 5717 5715 5713 5711 5709 5707 5705 5703 5700 5698 5695 5693 5690
5696 5699 5702 5704 5707 5710 5711 5713 5715 5717 5718 5719 5721 5722 5722 5722 5722 5723 5725 5725 5726 5728 5729 5729 5729 5730 5730 5730 5731 5731 5731 5730 5729 5728 5728 5727 5726 5725 5725 5725 5725 5725 5725 5724 5723 5722 5720 5719 5717 5715 5714 5712 5709 5707 5705 5704 5702 5699 5697 5694 5692 5689 5687
5691 5694 5697 5700 5703 5705 5706 5709 5711 5713 5714 5715 5716 5716 5717 5717 5717 5718 5719 5720 5720 5722 5724 5725 5725 5726 5726 5726 5726 5727 5726 5726 5725 5724 5723 5722 5721 5720 5719 5720 5721 5721 5721 5720 5719 5718 5717 5715 5713 5712 5710 5708 5706 5703 5701 5700 5698 5695 5693 5691 5688 5686 5684
5687 5689 5692 5695 5698 5700 5703 5705 5707 5708 5709 5709 5710 5710 5711 5712 5712 5712 5713 5713 5714 5716 5718 5719 5720 5720 5721 5721 5721 5722 5722 5722 5721 5719 5718 5717 5717 5716 5716 5716 5717 5717 5717 5716 5715 5714 5713 5711 5710 5708 5706 5704 5702 5700 5698 5696 5694 5691 5689 5687 5684 5682 5680